Location: Carlingford
(46.7848°N, 67.7474°W)
Time: 12:33:25
(UTC+00:00)

N. Korean satellite - Pass Details

Date: 05 December 2022
Orbit: 407 x 441 km, 97.3° (Epoch: 05 February)

Event Time Altitude Azimuth Distance (km) Brightness Sun altitude
Rises 10:31:14 0° 3° (N) 2,522 10.1 -14.5°
Reaches altitude 10° 10:33:26 10° 354° (N) 1,635 9.0 -14.2°
Maximum altitude 10:36:35 32° 290° (WNW) 828 7.2 -13.7°
Drops below altitude 10° 10:39:40 10° 226° (SW) 1,600 8.9 -13.2°
Sets 10:41:49 0° 216° (SW) 2,458 10.0 -12.8°
